星链-4455 (STARLINK-4455 )

导读

STARLINK-4455是美国太空探索技术公司(SpaceX)星链(Starlink)星座中的一颗卫星,于2022年8月12日发射升空,属于星链低轨互联网星座组网卫星,主要用于为全球提供高速宽带互联网服务,星链系统通过数千颗低轨卫星组网,可覆盖偏远地区,弥补地面网络覆盖不足。

基本信息
目录编号:
53500
目录名称:
STARLINK-4455
国际标识:
2022-099AM
轨道中心:
EARTH
卫星名称:
星链-4455
卫星全名:
星链-4455 (STARLINK-4455 )
卫星状态:
已陨落 最后检测时间 2026-09-03
发射日期:
2022-08-12 UTC
国别 :
美国 (US)
星等 :
--
该卫星已列入 空间交会检测服务 Space Conjunction Data Service (SCDS) ,当前飞行风险评估等级: 无高风险
轨道信息
数据来源 国际轨道数据
星历时间: 2026-09-02T23:02:34+0800
轨道信息已过期9天
半长轴: 6539.046km
偏心率: 0.0010363
轨道倾角: 97.577°
近地点辐角 278.496°
升交点赤经 19.750°
平近点角 81.517°
近地点: 154.132km
远地点: 167.686km
周期: 87.706分钟
每日圈数: 16.418415
详细信息
固有亮度:
5
最大亮度:
2.5
卫星平台:
Starlink v1.5
覆盖范围:
全球
运营商:
太空探索技术公司
运营商所在国:
美国
制造商(研发单位):
太空探索技术公司
制造商所在国:
美国
使用方式:
暂无
卫星简介
星链(Starlink)计划是由太空探索技术公司(SpaceX)提出的一个巨型低轨卫星互联网星座项目,计划在2019年至2024年间在太空搭建由约1.2万颗卫星组成的“星链”网络,其中1584颗将部署在地球上空550千米处的近地轨道,并从2020年开始工作。该卫星仍在工作。
与全量物体交会距离演化趋势
与全量物体交会风险概率演化趋势